Szabolcs Dibusz

Scout - Honved
9 Jul 2028
Sunday
Process

Personality

Adaptability (3) Ambition (17) Controversy (1) Loyalty (15) Pressure (2) Professionalism (5) Sportsmanship (12) Temperament (12)

Profile

Coaching Style Democratic
License National A
Determination 7
Man Management 6
Motivating 5
Discipline 12
Job Satisfaction
100%
Fatigue
0%
Role Scout
Wage 76.7K p/w
Contract 14.03.2029

Performance

Behaviour Good
Training Effectiveness
40%
Player Development
40%
Injury Prevention
50%
Tactical Implementation
60%

Recent Events

Attended a recruitment meeting 7d ago
Attended a recruitment meeting 7d ago
Attended a recruitment meeting 14d ago
Attended a recruitment meeting 14d ago
Attended a recruitment meeting 14d ago
Attended a recruitment meeting 21d ago
Attended a recruitment meeting 21d ago
Attended a recruitment meeting 21d ago

Currently Monitoring

76
Player Club Status Ability Confidence Watched Last Observed Latest Vote
Lewis Bate Stockport County Active 133 / 127 40% 2 12.06.2028 -
Tom Davies Barnet Active 142 / 130 40% 1 12.06.2028 -
Botond Baráth Vasas Active 94 / 88 51% 1 07.06.2028 -
Jeriel De Santis Caracas Active 102 / 108 40% 1 11.01.2028 -
Gergő Kocsis Fehervar Active 105 / 94 51% 1 10.01.2028 Monitor
Timothy Zechariah Rivers United Active 99 / 96 40% 1 31.12.2027 Needs More Info
Toby Collyer West Bromwich Albion Active 116 / 126 40% 2 30.05.2027 -
Adam Randell Bristol City Active 142 / 130 40% 2 29.05.2027 -
Connor Ogilvie Grimsby Town Active 127 / 109 40% 1 29.05.2027 -
Sondre Tronstad Blackburn Rovers Active 140 / 124 40% 3 28.05.2027 -
Atsuki Ito Bolton Wanderers Active 130 / 126 40% 1 27.05.2027 -
Ethan Pye Stockport County Active 132 / 108 40% 2 26.05.2027 -
Alfie Doughty Millwall Active 139 / 136 40% 2 26.05.2027 -
Josh Tymon Swansea City Active 127 / 126 40% 3 25.05.2027 -
Terry Devlin Portsmouth Active 112 / 113 40% 2 25.05.2027 -
Ryan Wintle Milton Keynes Dons Active 126 / 126 40% 1 24.05.2027 -
Jacques Ekomié Wrexham Active 129 / 120 40% 3 23.05.2027 -
Georgie Gent Barnsley Active 111 / 108 40% 2 22.05.2027 -
James Morris Leyton Orient Active 114 / 105 40% 1 22.05.2027 -
Marcus McGuane Huddersfield Town Active 121 / 128 40% 1 22.05.2027 -
Gustavo Hamer Sheffield United Active 141 / 128 40% 2 18.05.2027 -
Joel Bagan Cardiff City Active 131 / 116 40% 1 18.05.2027 -
Harry Clarke Preston Active 142 / 121 40% 2 17.05.2027 -
Darlin Yongwa Norwich City Active 126 / 133 40% 2 16.05.2027 -
Kristoffer Lund Birmingham Active 127 / 116 40% 1 16.05.2027 -
Josh Flint Gillingham Active 112 / 90 40% 1 15.05.2027 -
Dennis Cirkin Queens Park Rangers Active 116 / 127 40% 1 13.05.2027 -
Chris Mepham West Bromwich Albion Active 132 / 135 40% 1 13.05.2027 -
Liam Kitching Coventry City Active 112 / 130 40% 2 12.05.2027 -
Nathan Moriah-Welsh Mansfield Town Active 110 / 110 40% 1 12.05.2027 -
Lewis Gibson Preston Active 119 / 124 40% 1 11.05.2027 -
Jonathan Varane Queens Park Rangers Active 120 / 131 40% 1 11.05.2027 -
Connor Barrett Walsall Active 122 / 92 40% 1 10.05.2027 -
Radinio Balker Huddersfield Town Active 102 / 128 40% 2 09.05.2027 -
James Dornelly Peterborough United Active 84 / 104 40% 1 05.05.2027 -
Brian De Keersmaecker Oxford United Active 135 / 128 40% 1 05.05.2027 -
Gabriel Osho Cardiff City Active 127 / 132 40% 1 04.05.2027 -
Lloyd Jones Charlton Athletic Active 127 / 116 40% 1 29.04.2027 -
Max Bird Birmingham Active 122 / 135 40% 2 28.04.2027 -
Tom Hamer Lincoln City Active 95 / 105 40% 1 28.04.2027 -
Japhet Tanganga Sheffield United Active 125 / 118 40% 1 26.04.2027 -
Billy Gilmour Napoli Active 164 / 135 40% 2 23.04.2027 -
Jacob Greaves Ipswich Town Active 142 / 136 40% 1 23.04.2027 -
Marco Curto Empoli Active 123 / 130 40% 1 16.04.2027 -
Thalente Mbatha Orlando Pirates Active 102 / 115 40% 3 15.04.2027 -
Lebogang Manyama SuperSport United Active 124 / 117 40% 3 14.04.2027 -
Fawaaz Basadien Mamelodi Sundowns Active 107 / 105 40% 1 12.04.2027 -
Pietro Ceccaroni Palermo Active 110 / 117 40% 1 12.04.2027 -
Danilo Veiga Lecce Active 119 / 117 40% 1 11.04.2027 -
Ferland Mendy Real Madrid Active 159 / 130 40% 1 09.04.2027 -
Teboho Mokoena Mamelodi Sundowns Active 134 / 147 40% 1 09.04.2027 -
Sebastiano Luperto Cremonese Active 145 / 124 40% 2 07.04.2027 -
Thierry Rendall Correia Venezia Active 158 / 125 40% 1 07.04.2027 -
Mitchel Bakker Modena Active 146 / 136 40% 1 06.04.2027 -
Leeroy Owusu Hearts of Oak Active 123 / 114 40% 1 05.04.2027 -
Emmanuel Ntim Hearts of Oak Active 113 / 103 40% 1 02.04.2027 -
Hamdi Akujobi JS Kabylie Active 110 / 94 40% 1 26.03.2027 -
Giuseppe Pezzella Cremonese Active 123 / 133 40% 1 26.03.2027 -
Thabang Matuludi Polokwane City Active 94 / 125 40% 1 22.03.2027 -
Deano Van Rooyen SuperSport United Active 100 / 104 40% 1 21.03.2027 -
Pablo García Gijón Active 110 / 114 40% 1 20.03.2027 -
Mohammed Baba Hasaacas Active 100 / 92 40% 1 19.03.2027 -
Merwane Khelif MC Alger Active 125 / 103 40% 1 19.03.2027 -
Lebogang Dolly Free State Stars Active 119 / 97 40% 2 16.03.2027 -
Themba Lorch Platinum Stars Active 103 / 113 40% 1 16.03.2027 -
Alan Tsaraev Arsenal Tula Active 98 / 109 40% 1 15.03.2027 -
Ilja Agapov Ufa Active 117 / 104 40% 1 07.03.2027 -
Arsen Adamov Akhmat Grozny Active 132 / 120 40% 1 06.03.2027 -
Brooklyn Poggenpoel Maritzburg United Active 97 / 107 40% 1 03.03.2027 -
Tlou Nkwe Polokwane City Active 104 / 110 40% 1 25.02.2027 -
Ramahlwe Lorch SuperSport United Active 98 / 82 40% 1 22.02.2027 -
Bojan Roganović Torpedo Moscow Active 104 / 109 40% 1 15.02.2027 -
Nikita Kakkoev Nizhniy Novgorod Active 125 / 108 40% 1 15.02.2027 -
Marat Bokoev Akron Active 106 / 124 40% 1 10.02.2027 -
Goodman Mosele Chippa United Active 100 / 120 40% 1 07.02.2027 -
Víctor Camarasa Debrecen Active 102 / 105 40% 1 31.12.2026 -